Location: Ellingshausen
(50.5460°N, 10.4723°E)
Time: 00:19:41
(UTC+00:00)

Cosmos 1805 Rocket - Pass Details

Date: 18 January 2026
Orbit: 599 x 623 km, 82.5° (Epoch: 9 February)

Event Time Altitude Azimuth Distance (km) Brightness Sun altitude
Rises 05:10:45 0° 207° (SSW) 2,893 6.8 -18.5°
Reaches altitude 10° 05:13:04 10° 214° (SW) 1,990 5.9 -18.1°
Maximum altitude 05:17:16 43° 286° (WNW) 880 3.8 -17.5°
Drops below altitude 10° 05:21:30 10° 359° (N) 1,995 6.0 -16.8°
Sets 05:23:50 0° 6° (N) 2,901 6.9 -16.4°
